This is the latest recevied weather packets stored in our database for station/object KC1OEK-13. If no packets are shown the sender has not sent any weather packets the latest 10 day(s).
| Time | Temp. | Humidity | Pressure | Rain* | Wind** | Luminosity | Snow |
|---|---|---|---|---|---|---|---|
| 1777941335 | 15° C | 58% | 1011.8 hPa | 0 mm | - | 0 W/m² | - |
| 1777941032 | 15° C | 57% | 1011.9 hPa | 0 mm | - | 0 W/m² | - |
| 1777940726 | 15° C | 57% | 1011.5 hPa | 0 mm | - | 0 W/m² | - |
| 1777940426 | 15.56° C | 56% | 1011.5 hPa | 0 mm | - | 0 W/m² | - |
| 1777940123 | 15.56° C | 56% | 1011.3 hPa | 0 mm | - | 0 W/m² | - |
| 1777939820 | 15.56° C | 55% | 1011.3 hPa | 0 mm | - | 0 W/m² | - |
| 1777939517 | 16.11° C | 54% | 1011.2 hPa | 0 mm | - | 1 W/m² | - |
| 1777939215 | 16.11° C | 55% | 1011.2 hPa | 0 mm | - | 1 W/m² | - |
| 1777938911 | 16.11° C | 54% | 1011 hPa | 0 mm | - | 3 W/m² | - |
| 1777938607 | 16.67° C | 53% | 1010.9 hPa | 0 mm | - | 4 W/m² | - |
| 1777938305 | 16.67° C | 53% | 1010.9 hPa | 0 mm | - | 7 W/m² | - |
| 1777938001 | 16.67° C | 52% | 1010.8 hPa | 0 mm | - | 9 W/m² | - |
| 1777937697 | 16.67° C | 52% | 1010.7 hPa | 0 mm | - | 13 W/m² | - |
| 1777937394 | 17.22° C | 51% | 1010.6 hPa | 0 mm | - | 16 W/m² | - |
| 1777937091 | 17.22° C | 51% | 1010.5 hPa | 0 mm | - | 20 W/m² | - |
| 1777936789 | 17.22° C | 51% | 1010.4 hPa | 0 mm | - | 23 W/m² | - |
| 1777936485 | 17.22° C | 50% | 1010.2 hPa | 0 mm | - | 26 W/m² | - |
| 1777936181 | 17.22° C | 50% | 1010.3 hPa | 0 mm | - | 29 W/m² | - |
| 1777935878 | 17.78° C | 51% | 1010.3 hPa | 0 mm | - | 32 W/m² | - |
| 1777935577 | 17.78° C | 49% | 1010.4 hPa | 0 mm | - | 35 W/m² | - |
| 1777935273 | 18.33° C | 48% | 1010.3 hPa | 0 mm | - | 42 W/m² | - |
| 1777934970 | 18.33° C | 47% | 1010.3 hPa | 0 mm | - | 62 W/m² | - |
| 1777934667 | 18.33° C | 48% | 1010.3 hPa | 0 mm | - | 70 W/m² | - |
| 1777934364 | 18.89° C | 47% | 1010.3 hPa | 0 mm | - | 82 W/m² | - |
| 1777934060 | 18.89° C | 45% | 1010.3 hPa | 0 mm | - | 91 W/m² | - |
* Rain latest hour (hover to see other rain measurements)
** Current wind speed in m/s (hover to see current wind gust speed)